Location: Aufkirchen
(47.9603°N, 11.3653°E)
Time: 11:47:31
(UTC+01:00)

Tiros 1 - Pass Details

Date: 30 November 2020
Orbit: 630 x 663 km, 48.4° (Epoch: 21 January)

Event Time Altitude Azimuth Distance (km) Brightness Sun altitude
Rises 21:43:43 0° 280° (W) 2,976 - -51.8°
Reaches altitude 10° 21:47:04 10° 256° (WSW) 2,053 - -52.3°
Maximum altitude 21:49:32 14° 225° (SW) 1,779 - -52.6°
Drops below altitude 10° 21:51:59 10° 193° (SSW) 2,035 - -52.9°
Sets 21:55:17 0° 168° (SSE) 2,932 - -53.4°
